Retour au catalogue

CZ-6A DEB

ActifPO
NORAD 61390·DEBRIS·🇨🇳 China

Lancé Aug 6, 2024 depuis Taiyuan Satellite Launch Center

Loading…

Prochains Passages (prochaines 24 heures)

TLE

FraisSource: Space-Track

Époque: Sep 13, 2026, 22:52 UTC

1 61390U 24140XF  26256.95319922  .00002070  00000-0  76363-3 0  9998
2 61390  88.6874 234.4975 0016348 166.6544 193.5089 14.32110715105578

Suivez CZ-6A DEB en temps réel avec AllMySat

Download on the App Store